Year,Month,Day,Hour,Minute,Value (Times are PST for temperature in C)
2016,09,27,00,00,16.80
2016,09,27,00,01,16.80
2016,09,27,00,02,16.80
2016,09,27,00,03,16.80
2016,09,27,00,04,16.80
2016,09,27,00,05,16.80
2016,09,27,00,06,16.80
2016,09,27,00,07,16.80
2016,09,27,00,08,16.80
2016,09,27,00,09,16.80
2016,09,27,00,10,16.90
2016,09,27,00,11,16.90
2016,09,27,00,12,16.90
2016,09,27,00,13,16.90
2016,09,27,00,14,16.90
2016,09,27,00,15,16.90
2016,09,27,00,16,16.90
2016,09,27,00,17,16.90
2016,09,27,00,18,16.90
2016,09,27,00,19,16.90
2016,09,27,00,20,16.90
2016,09,27,00,21,16.90
2016,09,27,00,22,16.90
2016,09,27,00,23,16.90
2016,09,27,00,24,16.90
2016,09,27,00,25,16.90
2016,09,27,00,26,16.90
2016,09,27,00,27,16.90
2016,09,27,00,28,16.90
2016,09,27,00,29,16.90
2016,09,27,00,30,16.90
2016,09,27,00,31,16.90
2016,09,27,00,32,16.90
2016,09,27,00,33,16.90
2016,09,27,00,34,16.90
2016,09,27,00,35,16.90
2016,09,27,00,36,16.90
2016,09,27,00,37,16.90
2016,09,27,00,38,16.90
2016,09,27,00,39,16.80
2016,09,27,00,40,16.80
2016,09,27,00,41,16.80
2016,09,27,00,42,16.80
2016,09,27,00,43,16.80
2016,09,27,00,44,16.80
2016,09,27,00,45,16.80
2016,09,27,00,46,16.80
2016,09,27,00,47,16.80
2016,09,27,00,48,16.80
2016,09,27,00,49,16.80
2016,09,27,00,50,16.80
2016,09,27,00,51,16.70
2016,09,27,00,52,16.70
2016,09,27,00,53,16.70
2016,09,27,00,54,16.60
2016,09,27,00,55,16.60
2016,09,27,00,56,16.60
2016,09,27,00,57,16.50
2016,09,27,00,58,16.50
2016,09,27,00,59,16.40
2016,09,27,01,00,16.40
2016,09,27,01,01,16.40
2016,09,27,01,02,16.30
2016,09,27,01,03,16.30
2016,09,27,01,04,16.30
2016,09,27,01,05,16.30
2016,09,27,01,06,16.30
2016,09,27,01,07,16.20
2016,09,27,01,08,16.20
2016,09,27,01,09,16.20
2016,09,27,01,10,16.20
2016,09,27,01,11,16.20
2016,09,27,01,12,16.20
2016,09,27,01,13,16.20
2016,09,27,01,14,16.20
2016,09,27,01,15,16.20
2016,09,27,01,16,16.20
2016,09,27,01,17,16.20
2016,09,27,01,18,16.20
2016,09,27,01,19,16.20
2016,09,27,01,20,16.20
2016,09,27,01,21,16.20
2016,09,27,01,22,16.20
2016,09,27,01,23,16.20
2016,09,27,01,24,16.30
2016,09,27,01,25,16.30
2016,09,27,01,26,16.30
2016,09,27,01,27,16.30
2016,09,27,01,28,16.30
2016,09,27,01,29,16.30
2016,09,27,01,30,16.30
2016,09,27,01,31,16.30
2016,09,27,01,32,16.30
2016,09,27,01,33,16.30
2016,09,27,01,34,16.30
2016,09,27,01,35,16.30
2016,09,27,01,36,16.30
2016,09,27,01,37,16.30
2016,09,27,01,38,16.30
2016,09,27,01,39,16.30
2016,09,27,01,40,16.30
2016,09,27,01,41,16.30
2016,09,27,01,42,16.30
2016,09,27,01,43,16.30
2016,09,27,01,44,16.30
2016,09,27,01,45,16.30
2016,09,27,01,46,16.30
2016,09,27,01,47,16.30
2016,09,27,01,48,16.30
2016,09,27,01,49,16.30
2016,09,27,01,50,16.30
2016,09,27,01,51,16.30
2016,09,27,01,52,16.20
2016,09,27,01,53,16.20
2016,09,27,01,54,16.20
2016,09,27,01,55,16.20
2016,09,27,01,56,16.20
2016,09,27,01,57,16.10
2016,09,27,01,58,16.10
2016,09,27,01,59,16.10
2016,09,27,02,00,16.10
2016,09,27,02,01,16.10
2016,09,27,02,02,16.10
2016,09,27,02,03,16.10
2016,09,27,02,04,16.10
2016,09,27,02,05,16.10
2016,09,27,02,06,16.10
2016,09,27,02,07,16.10
2016,09,27,02,08,16.10
2016,09,27,02,09,16.10
2016,09,27,02,10,16.10
2016,09,27,02,11,16.10
2016,09,27,02,12,16.10
2016,09,27,02,13,16.10
2016,09,27,02,14,16.00
2016,09,27,02,15,16.00
2016,09,27,02,16,15.90
2016,09,27,02,17,15.90
2016,09,27,02,18,15.90
2016,09,27,02,19,15.90
2016,09,27,02,20,15.90
2016,09,27,02,21,15.90
2016,09,27,02,22,15.90
2016,09,27,02,23,15.90
2016,09,27,02,24,15.80
2016,09,27,02,25,15.80
2016,09,27,02,26,15.80
2016,09,27,02,27,15.80
2016,09,27,02,28,15.80
2016,09,27,02,29,15.80
2016,09,27,02,30,15.80
2016,09,27,02,31,15.80
2016,09,27,02,32,15.80
2016,09,27,02,33,15.80
2016,09,27,02,34,15.80
2016,09,27,02,35,15.80
2016,09,27,02,36,15.70
2016,09,27,02,37,15.70
2016,09,27,02,38,15.70
2016,09,27,02,39,15.70
2016,09,27,02,40,15.70
2016,09,27,02,41,15.70
2016,09,27,02,42,15.70
2016,09,27,02,43,15.70
2016,09,27,02,44,15.60
2016,09,27,02,45,15.60
2016,09,27,02,46,15.60
2016,09,27,02,47,15.60
2016,09,27,02,48,15.60
2016,09,27,02,49,15.60
2016,09,27,02,50,15.50
2016,09,27,02,51,15.50
2016,09,27,02,52,15.50
2016,09,27,02,53,15.40
2016,09,27,02,54,15.40
2016,09,27,02,55,15.40
2016,09,27,02,56,15.30
2016,09,27,02,57,15.30
2016,09,27,02,58,15.30
2016,09,27,02,59,15.30
2016,09,27,03,00,15.30
2016,09,27,03,01,15.30
2016,09,27,03,02,15.30
2016,09,27,03,03,15.30
2016,09,27,03,04,15.30
2016,09,27,03,05,15.20
2016,09,27,03,06,15.20
2016,09,27,03,07,15.20
2016,09,27,03,08,15.20
2016,09,27,03,09,15.20
2016,09,27,03,10,15.20
2016,09,27,03,11,15.10
2016,09,27,03,12,15.10
2016,09,27,03,13,15.10
2016,09,27,03,14,15.10
2016,09,27,03,15,15.00
2016,09,27,03,16,15.00
2016,09,27,03,17,15.00
2016,09,27,03,18,14.90
2016,09,27,03,19,14.90
2016,09,27,03,20,14.90
2016,09,27,03,21,14.90
2016,09,27,03,22,14.90
2016,09,27,03,23,14.90
2016,09,27,03,24,14.80
2016,09,27,03,25,14.80
2016,09,27,03,26,14.80
2016,09,27,03,27,14.80
2016,09,27,03,28,14.80
2016,09,27,03,29,14.70
2016,09,27,03,30,14.70
2016,09,27,03,31,14.70
2016,09,27,03,32,14.70
2016,09,27,03,33,14.70
2016,09,27,03,34,14.70
2016,09,27,03,35,14.60
2016,09,27,03,36,14.60
2016,09,27,03,37,14.60
2016,09,27,03,38,14.60
2016,09,27,03,39,14.50
2016,09,27,03,40,14.50
2016,09,27,03,41,14.50
2016,09,27,03,42,14.50
2016,09,27,03,43,14.40
2016,09,27,03,44,14.40
2016,09,27,03,45,14.40
2016,09,27,03,46,14.40
2016,09,27,03,47,14.40
2016,09,27,03,48,14.40
2016,09,27,03,49,14.40
2016,09,27,03,50,14.40
2016,09,27,03,51,14.40
2016,09,27,03,52,14.40
2016,09,27,03,53,14.40
2016,09,27,03,54,14.40
2016,09,27,03,55,14.30
2016,09,27,03,56,14.30
2016,09,27,03,57,14.30
2016,09,27,03,58,14.30
2016,09,27,03,59,14.20
2016,09,27,04,00,14.20
2016,09,27,04,01,14.20
2016,09,27,04,02,14.20
2016,09,27,04,03,14.20
2016,09,27,04,04,14.20
2016,09,27,04,05,14.20
2016,09,27,04,06,14.10
2016,09,27,04,07,14.10
2016,09,27,04,08,14.10
2016,09,27,04,09,14.10
2016,09,27,04,10,14.10
2016,09,27,04,11,14.00
2016,09,27,04,12,13.90
2016,09,27,04,13,13.90
2016,09,27,04,14,13.90
2016,09,27,04,15,13.80
2016,09,27,04,16,13.80
2016,09,27,04,17,13.80
2016,09,27,04,18,13.80
2016,09,27,04,19,13.80
2016,09,27,04,20,13.70
2016,09,27,04,21,13.70
2016,09,27,04,22,13.60
2016,09,27,04,23,13.60
2016,09,27,04,24,13.60
2016,09,27,04,25,13.50
2016,09,27,04,26,13.50
2016,09,27,04,27,13.50
2016,09,27,04,28,13.50
2016,09,27,04,29,13.40
2016,09,27,04,30,13.40
2016,09,27,04,31,13.40
2016,09,27,04,32,13.40
2016,09,27,04,33,13.30
2016,09,27,04,34,13.30
2016,09,27,04,35,13.30
2016,09,27,04,36,13.30
2016,09,27,04,37,13.20
2016,09,27,04,38,13.20
2016,09,27,04,39,13.20
2016,09,27,04,40,13.20
2016,09,27,04,41,13.20
2016,09,27,04,42,13.20
2016,09,27,04,43,13.20
2016,09,27,04,44,13.20
2016,09,27,04,45,13.10
2016,09,27,04,46,13.10
2016,09,27,04,47,13.10
2016,09,27,04,48,13.10
2016,09,27,04,49,13.10
2016,09,27,04,50,13.10
2016,09,27,04,51,13.00
2016,09,27,04,52,13.00
2016,09,27,04,53,13.00
2016,09,27,04,54,12.90
2016,09,27,04,55,12.90
2016,09,27,04,56,12.90
2016,09,27,04,57,12.90
2016,09,27,04,58,12.90
2016,09,27,04,59,12.80
2016,09,27,05,00,12.80
2016,09,27,05,01,12.80
2016,09,27,05,02,12.80
2016,09,27,05,03,12.70
2016,09,27,05,04,12.70
2016,09,27,05,05,12.70
2016,09,27,05,06,12.70
2016,09,27,05,07,12.70
2016,09,27,05,08,12.70
2016,09,27,05,09,12.70
2016,09,27,05,10,12.70
2016,09,27,05,11,12.60
2016,09,27,05,12,12.60
2016,09,27,05,13,12.60
2016,09,27,05,14,12.60
2016,09,27,05,15,12.60
2016,09,27,05,16,12.60
2016,09,27,05,17,12.50
2016,09,27,05,18,12.50
2016,09,27,05,19,12.50
2016,09,27,05,20,12.50
2016,09,27,05,21,12.40
2016,09,27,05,22,12.40
2016,09,27,05,23,12.40
2016,09,27,05,24,12.40
2016,09,27,05,25,12.40
2016,09,27,05,26,12.40
2016,09,27,05,27,12.30
2016,09,27,05,28,12.30
2016,09,27,05,29,12.30
2016,09,27,05,30,12.30
2016,09,27,05,31,12.30
2016,09,27,05,32,12.30
2016,09,27,05,33,12.30
2016,09,27,05,34,12.30
2016,09,27,05,35,12.20
2016,09,27,05,36,12.20
2016,09,27,05,37,12.20
2016,09,27,05,38,12.20
2016,09,27,05,39,12.20
2016,09,27,05,40,12.20
2016,09,27,05,41,12.20
2016,09,27,05,42,12.20
2016,09,27,05,43,12.20
2016,09,27,05,44,12.20
2016,09,27,05,45,12.20
2016,09,27,05,46,12.20
2016,09,27,05,47,12.20
2016,09,27,05,48,12.20
2016,09,27,05,49,12.20
2016,09,27,05,50,12.20
2016,09,27,05,51,12.20
2016,09,27,05,52,12.20
2016,09,27,05,53,12.20
2016,09,27,05,54,12.20
2016,09,27,05,55,12.20
2016,09,27,05,56,12.10
2016,09,27,05,57,12.10
2016,09,27,05,58,12.10
2016,09,27,05,59,12.10
2016,09,27,06,00,12.10
2016,09,27,06,01,12.10
2016,09,27,06,02,12.10
2016,09,27,06,03,12.00
2016,09,27,06,04,12.00
2016,09,27,06,05,12.00
2016,09,27,06,06,11.90
2016,09,27,06,07,11.90
2016,09,27,06,08,11.90
2016,09,27,06,09,11.90
2016,09,27,06,10,11.80
2016,09,27,06,11,11.80
2016,09,27,06,12,11.80
2016,09,27,06,13,11.80
2016,09,27,06,14,11.70
2016,09,27,06,15,11.70
2016,09,27,06,16,11.70
2016,09,27,06,17,11.70
2016,09,27,06,18,11.70
2016,09,27,06,19,11.70
2016,09,27,06,20,11.70
2016,09,27,06,21,11.70
2016,09,27,06,22,11.70
2016,09,27,06,23,11.70
2016,09,27,06,24,11.70
2016,09,27,06,25,11.70
2016,09,27,06,26,11.70
2016,09,27,06,27,11.70
2016,09,27,06,28,11.70
2016,09,27,06,29,11.70
2016,09,27,06,30,11.70
2016,09,27,06,31,11.60
2016,09,27,06,32,11.60
2016,09,27,06,33,11.70
2016,09,27,06,34,11.70
2016,09,27,06,35,11.70
2016,09,27,06,36,11.70
2016,09,27,06,37,11.70
2016,09,27,06,38,11.70
2016,09,27,06,39,11.80
2016,09,27,06,40,11.80
2016,09,27,06,41,11.80
2016,09,27,06,42,11.80
2016,09,27,06,43,11.80
2016,09,27,06,44,11.80
2016,09,27,06,45,11.80
2016,09,27,06,46,11.80
2016,09,27,06,47,11.80
2016,09,27,06,48,11.70
2016,09,27,06,49,11.70
2016,09,27,06,50,11.70
2016,09,27,06,51,11.70
2016,09,27,06,52,11.70
2016,09,27,06,53,11.70
2016,09,27,06,54,11.70
2016,09,27,06,55,11.70
2016,09,27,06,56,11.70
2016,09,27,06,57,11.70
2016,09,27,06,58,11.70
2016,09,27,06,59,11.70
2016,09,27,07,00,11.80
2016,09,27,07,01,11.80
2016,09,27,07,02,11.80
2016,09,27,07,03,11.80
2016,09,27,07,04,11.80
2016,09,27,07,05,11.80
2016,09,27,07,06,11.80
2016,09,27,07,07,11.80
2016,09,27,07,08,11.80
2016,09,27,07,09,11.80
2016,09,27,07,10,11.80
2016,09,27,07,11,11.80
2016,09,27,07,12,11.80
2016,09,27,07,13,11.80
2016,09,27,07,14,11.90
2016,09,27,07,15,11.90
2016,09,27,07,16,11.90
2016,09,27,07,17,11.90
2016,09,27,07,18,11.90
2016,09,27,07,19,11.90
2016,09,27,07,20,11.90
2016,09,27,07,21,11.90
2016,09,27,07,22,12.00
2016,09,27,07,23,12.00
2016,09,27,07,24,12.00
2016,09,27,07,25,12.10
2016,09,27,07,26,12.10
2016,09,27,07,27,12.20
2016,09,27,07,28,12.20
2016,09,27,07,29,12.20
2016,09,27,07,30,12.30
2016,09,27,07,31,12.30
2016,09,27,07,32,12.30
2016,09,27,07,33,12.30
2016,09,27,07,34,12.40
2016,09,27,07,35,12.40
2016,09,27,07,36,12.40
2016,09,27,07,37,12.40
2016,09,27,07,38,12.40
2016,09,27,07,39,12.30
2016,09,27,07,40,12.30
2016,09,27,07,41,12.30
2016,09,27,07,42,12.30
2016,09,27,07,43,12.40
2016,09,27,07,44,12.40
2016,09,27,07,45,12.40
2016,09,27,07,46,12.40
2016,09,27,07,47,12.40
2016,09,27,07,48,12.40
2016,09,27,07,49,12.40
2016,09,27,07,50,12.40
2016,09,27,07,51,12.40
2016,09,27,07,52,12.50
2016,09,27,07,53,12.50
2016,09,27,07,54,12.50
2016,09,27,07,55,12.50
2016,09,27,07,56,12.60
2016,09,27,07,57,12.60
2016,09,27,07,58,12.60
2016,09,27,07,59,12.50
2016,09,27,08,00,12.50
2016,09,27,08,01,12.50
2016,09,27,08,02,12.50
2016,09,27,08,03,12.50
2016,09,27,08,04,12.60
2016,09,27,08,05,12.60
2016,09,27,08,06,12.60
2016,09,27,08,07,12.60
2016,09,27,08,08,12.70
2016,09,27,08,09,12.70
2016,09,27,08,10,12.70
2016,09,27,08,11,12.70
2016,09,27,08,12,12.70
2016,09,27,08,13,12.80
2016,09,27,08,14,12.80
2016,09,27,08,15,12.80
2016,09,27,08,16,12.80
2016,09,27,08,17,12.90
2016,09,27,08,18,12.90
2016,09,27,08,19,12.90
2016,09,27,08,20,12.90
2016,09,27,08,21,12.90
2016,09,27,08,22,12.90
2016,09,27,08,23,12.90
2016,09,27,08,24,12.90
2016,09,27,08,25,12.90
2016,09,27,08,26,13.00
2016,09,27,08,27,13.00
2016,09,27,08,28,13.00
2016,09,27,08,29,13.10
2016,09,27,08,30,13.10
2016,09,27,08,31,13.10
2016,09,27,08,32,13.10
2016,09,27,08,33,13.10
2016,09,27,08,34,13.10
2016,09,27,08,35,13.20
2016,09,27,08,36,13.20
2016,09,27,08,37,13.20
2016,09,27,08,38,13.20
2016,09,27,08,39,13.20
2016,09,27,08,40,13.20
2016,09,27,08,41,13.30
2016,09,27,08,42,13.30
2016,09,27,08,43,13.30
2016,09,27,08,44,13.30
2016,09,27,08,45,13.30
2016,09,27,08,46,13.40
2016,09,27,08,47,13.40
2016,09,27,08,48,13.40
2016,09,27,08,49,13.40
2016,09,27,08,50,13.40
2016,09,27,08,51,13.50
2016,09,27,08,52,13.50
2016,09,27,08,53,13.50
2016,09,27,08,54,13.60
2016,09,27,08,55,13.60
2016,09,27,08,56,13.70
2016,09,27,08,57,13.80
2016,09,27,08,58,13.90
2016,09,27,08,59,13.90
2016,09,27,09,00,14.00
2016,09,27,09,01,14.10
2016,09,27,09,02,14.10
2016,09,27,09,03,14.10
2016,09,27,09,04,14.10
2016,09,27,09,05,14.20
2016,09,27,09,06,14.20
2016,09,27,09,07,14.20
2016,09,27,09,08,14.30
2016,09,27,09,09,14.30
2016,09,27,09,10,14.30
2016,09,27,09,11,14.40
2016,09,27,09,12,14.40
2016,09,27,09,13,14.50
2016,09,27,09,14,14.50
2016,09,27,09,15,14.60
2016,09,27,09,16,14.60
2016,09,27,09,17,14.60
2016,09,27,09,18,14.60
2016,09,27,09,19,14.60
2016,09,27,09,20,14.60
2016,09,27,09,21,14.60
2016,09,27,09,22,14.60
2016,09,27,09,23,14.60
2016,09,27,09,24,14.70
2016,09,27,09,25,14.70
2016,09,27,09,26,14.70
2016,09,27,09,27,14.80
2016,09,27,09,28,14.80
2016,09,27,09,29,14.80
2016,09,27,09,30,14.80
2016,09,27,09,31,14.90
2016,09,27,09,32,14.90
2016,09,27,09,33,14.90
2016,09,27,09,34,14.90
2016,09,27,09,35,15.00
2016,09,27,09,36,15.00
2016,09,27,09,37,15.00
2016,09,27,09,38,15.10
2016,09,27,09,39,15.10
2016,09,27,09,40,15.10
2016,09,27,09,41,15.20
2016,09,27,09,42,15.20
2016,09,27,09,43,15.30
2016,09,27,09,44,15.30
2016,09,27,09,45,15.30
2016,09,27,09,46,15.40
2016,09,27,09,47,15.40
2016,09,27,09,48,15.50
2016,09,27,09,49,15.60
2016,09,27,09,50,15.60
2016,09,27,09,51,15.70
2016,09,27,09,52,15.70
2016,09,27,09,53,15.70
2016,09,27,09,54,15.70
2016,09,27,09,55,15.70
2016,09,27,09,56,15.70
2016,09,27,09,57,15.70
2016,09,27,09,58,15.70
2016,09,27,09,59,15.80
2016,09,27,10,00,15.80
2016,09,27,10,01,15.80
2016,09,27,10,02,15.80
2016,09,27,10,03,15.90
2016,09,27,10,04,15.90
2016,09,27,10,05,16.00
2016,09,27,10,06,16.10
2016,09,27,10,07,16.20
2016,09,27,10,08,16.40
2016,09,27,10,09,16.50
2016,09,27,10,10,16.60
2016,09,27,10,11,16.70
2016,09,27,10,12,16.70
2016,09,27,10,13,16.70
2016,09,27,10,14,16.80
2016,09,27,10,15,16.90
2016,09,27,10,16,17.00
2016,09,27,10,17,17.10
2016,09,27,10,18,17.10
2016,09,27,10,19,17.10
2016,09,27,10,20,17.10
2016,09,27,10,21,17.10
2016,09,27,10,22,17.00
2016,09,27,10,23,16.90
2016,09,27,10,24,16.90
2016,09,27,10,25,16.90
2016,09,27,10,26,16.90
2016,09,27,10,27,16.90
2016,09,27,10,28,16.90
2016,09,27,10,29,16.90
2016,09,27,10,30,16.90
2016,09,27,10,31,17.00
2016,09,27,10,32,17.10
2016,09,27,10,33,17.20
2016,09,27,10,34,17.20
2016,09,27,10,35,17.20
2016,09,27,10,36,17.20
2016,09,27,10,37,17.10
2016,09,27,10,38,17.10
2016,09,27,10,39,17.10
2016,09,27,10,40,17.10
2016,09,27,10,41,17.20
2016,09,27,10,42,17.20
2016,09,27,10,43,17.20
2016,09,27,10,44,17.20
2016,09,27,10,45,17.20
2016,09,27,10,46,17.20
2016,09,27,10,47,17.10
2016,09,27,10,48,16.80
2016,09,27,10,49,16.50
2016,09,27,10,50,16.40
2016,09,27,10,51,16.20
2016,09,27,10,52,16.00
2016,09,27,10,53,15.90
2016,09,27,10,54,15.60
2016,09,27,10,55,15.50
2016,09,27,10,56,15.30
2016,09,27,10,57,15.20
2016,09,27,10,58,15.00
2016,09,27,10,59,14.90
2016,09,27,11,00,14.90
2016,09,27,11,01,14.80
2016,09,27,11,02,14.80
2016,09,27,11,03,14.90
2016,09,27,11,04,14.90
2016,09,27,11,05,14.90
2016,09,27,11,06,14.90
2016,09,27,11,07,14.90
2016,09,27,11,08,14.80
2016,09,27,11,09,14.80
2016,09,27,11,10,14.90
2016,09,27,11,11,15.00
2016,09,27,11,12,15.00
2016,09,27,11,13,15.00
2016,09,27,11,14,15.00
2016,09,27,11,15,15.00
2016,09,27,11,16,15.10
2016,09,27,11,17,15.10
2016,09,27,11,18,15.10
2016,09,27,11,19,15.10
2016,09,27,11,20,15.20
2016,09,27,11,21,15.20
2016,09,27,11,22,15.20
2016,09,27,11,23,15.20
2016,09,27,11,24,15.20
2016,09,27,11,25,15.30
2016,09,27,11,26,15.40
2016,09,27,11,27,15.60
2016,09,27,11,28,15.70
2016,09,27,11,29,15.70
2016,09,27,11,30,15.70
2016,09,27,11,31,15.60
2016,09,27,11,32,15.60
2016,09,27,11,33,15.50
2016,09,27,11,34,15.50
2016,09,27,11,35,15.40
2016,09,27,11,36,15.50
2016,09,27,11,37,15.50
2016,09,27,11,38,15.50
2016,09,27,11,39,15.60
2016,09,27,11,40,15.60
2016,09,27,11,41,15.70
2016,09,27,11,42,15.70
2016,09,27,11,43,15.80
2016,09,27,11,44,15.80
2016,09,27,11,45,15.80
2016,09,27,11,46,15.80
2016,09,27,11,47,15.70
2016,09,27,11,48,15.70
2016,09,27,11,49,15.70
2016,09,27,11,50,15.70
2016,09,27,11,51,15.70
2016,09,27,11,52,15.70
2016,09,27,11,53,15.80
2016,09,27,11,54,15.90
2016,09,27,11,55,16.10
2016,09,27,11,56,16.20
2016,09,27,11,57,16.30
2016,09,27,11,58,16.50
2016,09,27,11,59,16.70
2016,09,27,12,00,16.70
2016,09,27,12,01,16.50
2016,09,27,12,02,16.40
2016,09,27,12,03,16.40
2016,09,27,12,04,16.40
2016,09,27,12,05,16.30
2016,09,27,12,06,16.30
2016,09,27,12,07,16.40
2016,09,27,12,08,16.40
2016,09,27,12,09,16.40
2016,09,27,12,10,16.30
2016,09,27,12,11,16.20
2016,09,27,12,12,16.20
2016,09,27,12,13,16.20
2016,09,27,12,14,16.20
2016,09,27,12,15,16.30
2016,09,27,12,16,16.30
2016,09,27,12,17,16.40
2016,09,27,12,18,16.50
2016,09,27,12,19,16.50
2016,09,27,12,20,16.50
2016,09,27,12,21,16.40
2016,09,27,12,22,16.40
2016,09,27,12,23,16.30
2016,09,27,12,24,16.20
2016,09,27,12,25,16.30
2016,09,27,12,26,16.40
2016,09,27,12,27,16.40
2016,09,27,12,28,16.30
2016,09,27,12,29,16.30
2016,09,27,12,30,16.20
2016,09,27,12,31,16.30
2016,09,27,12,32,16.40
2016,09,27,12,33,16.40
2016,09,27,12,34,16.40
2016,09,27,12,35,16.40
2016,09,27,12,36,16.40
2016,09,27,12,37,16.40
2016,09,27,12,38,16.40
2016,09,27,12,39,16.50
2016,09,27,12,40,16.60
2016,09,27,12,41,16.70
2016,09,27,12,42,16.70
2016,09,27,12,43,16.80
2016,09,27,12,44,16.70
2016,09,27,12,45,16.60
2016,09,27,12,46,16.50
2016,09,27,12,47,16.60
2016,09,27,12,48,16.70
2016,09,27,12,49,16.70
2016,09,27,12,50,16.60
2016,09,27,12,51,16.50
2016,09,27,12,52,16.50
2016,09,27,12,53,16.40
2016,09,27,12,54,16.40
2016,09,27,12,55,16.40
2016,09,27,12,56,16.50
2016,09,27,12,57,16.50
2016,09,27,12,58,16.50
2016,09,27,12,59,16.50
2016,09,27,13,00,16.50
2016,09,27,13,01,16.60
2016,09,27,13,02,16.50
2016,09,27,13,03,16.40
2016,09,27,13,04,16.50
2016,09,27,13,05,16.40
2016,09,27,13,06,16.60
2016,09,27,13,07,16.70
2016,09,27,13,08,16.80
2016,09,27,13,09,16.90
2016,09,27,13,10,17.00
2016,09,27,13,11,17.10
2016,09,27,13,12,17.30
2016,09,27,13,13,17.50
2016,09,27,13,14,17.60
2016,09,27,13,15,17.60
2016,09,27,13,16,17.50
2016,09,27,13,17,17.50
2016,09,27,13,18,17.50
2016,09,27,13,19,17.40
2016,09,27,13,20,17.20
2016,09,27,13,21,17.10
2016,09,27,13,22,17.00
2016,09,27,13,23,17.00
2016,09,27,13,24,16.90
2016,09,27,13,25,16.90
2016,09,27,13,26,17.00
2016,09,27,13,27,17.10
2016,09,27,13,28,17.20
2016,09,27,13,29,17.30
2016,09,27,13,30,17.10
2016,09,27,13,31,17.00
2016,09,27,13,32,16.90
2016,09,27,13,33,16.70
2016,09,27,13,34,16.70
2016,09,27,13,35,16.70
2016,09,27,13,36,16.80
2016,09,27,13,37,16.90
2016,09,27,13,38,16.90
2016,09,27,13,39,17.00
2016,09,27,13,40,17.10
2016,09,27,13,41,17.20
2016,09,27,13,42,17.20
2016,09,27,13,43,17.20
2016,09,27,13,44,17.20
2016,09,27,13,45,17.20
2016,09,27,13,46,17.40
2016,09,27,13,47,17.60
2016,09,27,13,48,17.70
2016,09,27,13,49,17.70
2016,09,27,13,50,17.70
2016,09,27,13,51,17.60
2016,09,27,13,52,17.60
2016,09,27,13,53,17.60
2016,09,27,13,54,17.50
2016,09,27,13,55,17.50
2016,09,27,13,56,17.70
2016,09,27,13,57,17.80
2016,09,27,13,58,17.80
2016,09,27,13,59,17.90
2016,09,27,14,00,17.90
2016,09,27,14,01,17.80
2016,09,27,14,02,17.70
2016,09,27,14,03,17.50
2016,09,27,14,04,17.40
2016,09,27,14,05,17.40
2016,09,27,14,06,17.60
2016,09,27,14,07,17.80
2016,09,27,14,08,17.90
2016,09,27,14,09,18.10
2016,09,27,14,10,18.20
2016,09,27,14,11,18.20
2016,09,27,14,12,18.20
2016,09,27,14,13,18.10
2016,09,27,14,14,18.10
2016,09,27,14,15,18.20
2016,09,27,14,16,18.20
2016,09,27,14,17,18.20
2016,09,27,14,18,18.30
2016,09,27,14,19,18.30
2016,09,27,14,20,18.40
2016,09,27,14,21,18.40
2016,09,27,14,22,18.50
2016,09,27,14,23,18.60
2016,09,27,14,24,18.60
2016,09,27,14,25,18.60
2016,09,27,14,26,18.60
2016,09,27,14,27,18.60
2016,09,27,14,28,18.70
2016,09,27,14,29,18.70
2016,09,27,14,30,18.70
2016,09,27,14,31,18.70
2016,09,27,14,32,18.70
2016,09,27,14,33,18.50
2016,09,27,14,34,18.40
2016,09,27,14,35,18.40
2016,09,27,14,36,18.30
2016,09,27,14,37,18.30
2016,09,27,14,38,18.30
2016,09,27,14,39,18.30
2016,09,27,14,40,18.30
2016,09,27,14,41,18.20
2016,09,27,14,42,18.10
2016,09,27,14,43,18.10
2016,09,27,14,44,18.10
2016,09,27,14,45,18.20
2016,09,27,14,46,18.30
2016,09,27,14,47,18.40
2016,09,27,14,48,18.50
2016,09,27,14,49,18.60
2016,09,27,14,50,18.70
2016,09,27,14,51,18.50
2016,09,27,14,52,18.40
2016,09,27,14,53,18.50
2016,09,27,14,54,18.60
2016,09,27,14,55,18.70
2016,09,27,14,56,19.00
2016,09,27,14,57,19.10
2016,09,27,14,58,19.20
2016,09,27,14,59,19.30
2016,09,27,15,00,19.40
2016,09,27,15,01,19.40
2016,09,27,15,02,19.50
2016,09,27,15,03,19.60
2016,09,27,15,04,19.70
2016,09,27,15,05,19.70
2016,09,27,15,06,19.60
2016,09,27,15,07,19.40
2016,09,27,15,08,19.10
2016,09,27,15,09,18.90
2016,09,27,15,10,18.80
2016,09,27,15,11,18.80
2016,09,27,15,12,18.90
2016,09,27,15,13,18.90
2016,09,27,15,14,18.90
2016,09,27,15,15,18.70
2016,09,27,15,16,18.60
2016,09,27,15,17,18.50
2016,09,27,15,18,18.50
2016,09,27,15,19,18.60
2016,09,27,15,20,18.70
2016,09,27,15,21,18.80
2016,09,27,15,22,18.90
2016,09,27,15,23,19.00
2016,09,27,15,24,19.10
2016,09,27,15,25,19.20
2016,09,27,15,26,19.20
2016,09,27,15,27,19.10
2016,09,27,15,28,19.00
2016,09,27,15,29,18.80
2016,09,27,15,30,18.60
2016,09,27,15,31,18.70
2016,09,27,15,32,18.80
2016,09,27,15,33,18.90
2016,09,27,15,34,19.00
2016,09,27,15,35,19.00
2016,09,27,15,36,19.10
2016,09,27,15,37,19.20
2016,09,27,15,38,19.20
2016,09,27,15,39,19.30
2016,09,27,15,40,19.40
2016,09,27,15,41,19.50
2016,09,27,15,42,19.70
2016,09,27,15,43,19.70
2016,09,27,15,44,19.80
2016,09,27,15,45,19.70
2016,09,27,15,46,19.60
2016,09,27,15,47,19.50
2016,09,27,15,48,19.40
2016,09,27,15,49,19.40
2016,09,27,15,50,19.30
2016,09,27,15,51,19.30
2016,09,27,15,52,19.30
2016,09,27,15,53,19.20
2016,09,27,15,54,19.20
2016,09,27,15,55,19.20
2016,09,27,15,56,19.10
2016,09,27,15,57,18.90
2016,09,27,15,58,19.00
2016,09,27,15,59,19.00
2016,09,27,16,00,19.00
2016,09,27,16,01,19.10
2016,09,27,16,02,19.10
2016,09,27,16,03,19.10
2016,09,27,16,04,19.20
2016,09,27,16,05,19.20
2016,09,27,16,06,19.30
2016,09,27,16,07,19.30
2016,09,27,16,08,19.30
2016,09,27,16,09,19.20
2016,09,27,16,10,19.20
2016,09,27,16,11,19.20
2016,09,27,16,12,19.20
2016,09,27,16,13,19.20
2016,09,27,16,14,19.10
2016,09,27,16,15,19.00
2016,09,27,16,16,19.00
2016,09,27,16,17,18.90
2016,09,27,16,18,18.90
2016,09,27,16,19,18.90
2016,09,27,16,20,18.90
2016,09,27,16,21,18.80
2016,09,27,16,22,18.80
2016,09,27,16,23,18.70
2016,09,27,16,24,18.60
2016,09,27,16,25,18.50
2016,09,27,16,26,18.40
2016,09,27,16,27,18.20
2016,09,27,16,28,18.20
2016,09,27,16,29,18.10
2016,09,27,16,30,18.10
2016,09,27,16,31,18.10
2016,09,27,16,32,18.10
2016,09,27,16,33,18.00
2016,09,27,16,34,18.10
2016,09,27,16,35,18.10
2016,09,27,16,36,18.10
2016,09,27,16,37,18.10
2016,09,27,16,38,18.20
2016,09,27,16,39,18.30
2016,09,27,16,40,18.30
2016,09,27,16,41,18.20
2016,09,27,16,42,18.10
2016,09,27,16,43,18.00
2016,09,27,16,44,17.90
2016,09,27,16,45,17.80
2016,09,27,16,46,17.80
2016,09,27,16,47,17.80
2016,09,27,16,48,17.80
2016,09,27,16,49,17.90
2016,09,27,16,50,18.00
2016,09,27,16,51,18.10
2016,09,27,16,52,18.10
2016,09,27,16,53,17.90
2016,09,27,16,54,17.80
2016,09,27,16,55,17.80
2016,09,27,16,56,17.80
2016,09,27,16,57,17.80
2016,09,27,16,58,17.80
2016,09,27,16,59,17.70
2016,09,27,17,00,17.70
2016,09,27,17,01,17.70
2016,09,27,17,02,17.60
2016,09,27,17,03,17.60
2016,09,27,17,04,17.60
2016,09,27,17,05,17.60
2016,09,27,17,06,17.60
2016,09,27,17,07,17.70
2016,09,27,17,08,17.70
2016,09,27,17,09,17.70
2016,09,27,17,10,17.70
2016,09,27,17,11,17.70
2016,09,27,17,12,17.70
2016,09,27,17,13,17.70
2016,09,27,17,14,17.80
2016,09,27,17,15,17.70
2016,09,27,17,16,17.70
2016,09,27,17,17,17.70
2016,09,27,17,18,17.70
2016,09,27,17,19,17.70